Flag for Slovakia Weather past 2 weeks in Bratislava, Slovakia

Now
45 °F

Sunny.


Feels Like: 38 °F
Forecast: 35 / 51 °F
Wind: 13 mph from North

Location: Bratislava Ivanka

Current Time: Mar 6, 2015 at 5:44:21 PM

Latest Report: Mar 6, 2015 at 5:00 PM


Visibility: 10 mi

Pressure: 30.51 "Hg

Humidity: 42%

Dew point: 23 °F

Location of BratislavaLocation

Historic Weather in Bratislava — Graph

°F

Bratislava temperature yesterday

Maximum temperature yesterday: 46 °F (at 11:30 AM)
Minimum temperature yesterday: 34 °F (at 6:00 AM)
Average temperature yesterday: 41 °F

Past Weeks' High & Low Weather Summary

 TemperatureHumidityPressure
High54 °F (Feb 21, 2:00 PM)100% (Feb 23, 12:00 PM)30.54 "Hg (Feb 23, 12:00 PM)
Low23 °F (Feb 20, 6:00 AM)34% (Mar 3, 12:00 PM)29.59 "Hg (Feb 21, 3:30 PM)
Average41 °F73%30.00 "Hg
* Reported Feb 19 4:00 PM — Mar 6 4:30 PM, Bratislava, Weather by CustomWeather, © 2015

Note: Actual official high and low records may vary slightly from our data, if they occured in-between our weather recording intervals... More about our weather records

Advertising

Bratislava weather history for previous 24 hours

 ConditionsComfort  
Time TempWeatherWind HumidityBarometerVisibility
4:30 PM
Fri, Mar 6
46 °FSunny.12 mph40%30.51 "Hg10 mi
4:00 PM46 °FSunny.16 mph37%30.51 "Hg10 mi
3:30 PM46 °FSunny.15 mph37%30.51 "Hg10 mi
3:00 PM45 °FPassing clouds.12 mph39%30.51 "HgN/A
2:30 PM46 °FSunny.14 mph40%30.51 "Hg10 mi
2:00 PM46 °FSunny.13 mph40%30.51 "Hg10 mi
1:30 PM46 °FSunny.13 mph37%30.54 "Hg10 mi
1:00 PM46 °FSunny.13 mph40%30.54 "Hg10 mi
12:30 PM45 °FSunny.12 mph39%30.54 "Hg10 mi
12:00 PM45 °FSunny.15 mph39%30.54 "Hg10 mi
11:30 AM45 °FPassing clouds.15 mph42%30.54 "HgN/A
11:00 AM43 °FScattered clouds.18 mph49%30.54 "HgN/A
10:30 AM41 °FScattered clouds.14 mph49%30.54 "HgN/A
10:00 AM41 °FScattered clouds.14 mph49%30.54 "HgN/A
9:30 AM43 °FPassing clouds.16 mph46%30.54 "HgN/A
9:00 AM41 °FSunny.9 mph57%30.54 "Hg10 mi
8:30 AM39 °FSunny.12 mph61%30.54 "Hg10 mi
8:00 AM37 °FSunny.12 mph65%30.51 "Hg10 mi
7:30 AM36 °FSunny.13 mph70%30.51 "Hg10 mi
7:00 AM36 °FSunny.14 mph70%30.51 "Hg10 mi
6:30 AM36 °FSunny.12 mph70%30.51 "Hg10 mi
6:00 AM36 °FClear.13 mph70%30.48 "Hg10 mi
5:30 AM34 °FClear.9 mph75%30.48 "Hg10 mi
5:00 AM36 °FClear.17 mph70%30.48 "Hg10 mi
4:30 AM36 °FClear.16 mph70%30.48 "Hg10 mi
4:00 AM36 °FClear.14 mph70%30.48 "Hg10 mi
3:30 AM36 °FClear.8 mph70%30.48 "Hg10 mi
3:00 AM34 °FClear.8 mph75%30.48 "Hg10 mi
2:30 AM36 °FClear.6 mph75%30.48 "Hg10 mi
2:00 AM36 °FPassing clouds.6 mph75%30.48 "HgN/A
1:30 AM34 °FClear.7 mph75%30.48 "Hg10 mi
1:00 AM36 °FClear.8 mph75%30.48 "Hg10 mi
12:30 AM34 °FClear.9 mph81%30.48 "Hg10 mi
12:00 AM36 °FClear.7 mph70%30.48 "Hg10 mi
11:30 PM
Thu, Mar 5
37 °FClear.6 mph65%30.48 "Hg10 mi
11:00 PM37 °FPassing clouds.6 mph70%30.48 "HgN/A
10:30 PM37 °FClear.7 mph70%30.48 "Hg10 mi
10:00 PM37 °FClear.8 mph70%30.45 "Hg10 mi
9:30 PM37 °FClear.7 mph70%30.45 "Hg10 mi
9:00 PM37 °FClear.9 mph70%30.45 "Hg10 mi
8:30 PM37 °FClear.9 mph70%30.45 "Hg10 mi
8:00 PM41 °FClear.12 mph61%30.42 "Hg10 mi
7:30 PM41 °FPassing clouds.12 mph61%30.42 "HgN/A
7:00 PM41 °FPassing clouds.10 mph61%30.42 "HgN/A
6:30 PM41 °FPassing clouds.10 mph57%30.39 "HgN/A
6:00 PM43 °FPassing clouds.12 mph49%30.39 "HgN/A
5:30 PM43 °FScattered clouds.12 mph53%30.36 "HgN/A
5:00 PM43 °FScattered clouds.14 mph49%30.36 "HgN/A
Weather by CustomWeather, © 2015

See weather overviewHow to use our weather pages